Weather History for Egegik, AK

Change the Weather History Date:

Thursday, November 15, 2012

  Actual Average (PAKN) Record (PAKN)
Temperature  
Mean Temperature 23 °F 23 °F  
Max Temperature 32 °F 30 °F 47 °F (1996)
Min Temperature 14 °F 15 °F -26 °F (1977)
Degree Days  
Heating Degree Days 42 42  
Month to date heating degree days 607  
Since 1 July heating degree days 2719  
Cooling Degree Days 0    
Month to date cooling degree days  
Year to date cooling degree days  
Moisture  
Dew Point 15 °F    
Average Humidity 81    
Maximum Humidity 100    
Minimum Humidity 67    
Precipitation  
Precipitation 0.00 in 0.04 in 0.74 in (1979)
Month to date precipitation 0.72  
Year to date precipitation 17.59  
Snow  
Snow 0.00 in 0.20 in 3.10 in (1958)
Month to date snowfall 2.8  
Since 1 July snowfall 5.7  
Since 1 September snowfall 5.7  
Snow Depth -    
Sea Level Pressure  
Sea Level Pressure 29.62 in    
Wind  
Wind Speed 12 mph (North)    
Max Wind Speed 23 mph    
Max Gust Speed 31 mph    
Visibility 7 miles    
Events      
T = Trace of Precipitation, MM = Missing Value Source: NWS Daily Summary

Daily Weather History Graph

Daily Weather History Graph

Search for Another Location

Airport:

Trip Planner

Search our weather history database for the weather conditions in past years. The results will help you decide how hot, cold, wet, or windy it might be!

Date:

Astronomy

Nov. 15, 2012 Rise Set
Actual Time 9:18 AM AKST 5:09 PM AKST
Civil Twilight 8:32 AM AKST 5:54 PM AKST
Nautical Twilight 7:43 AM AKST 6:43 PM AKST
Astronomical Twilight 6:57 AM AKST 7:30 PM AKST
Moon 11:44 AM AKST (11/15) 6:55 PM AKST (11/15)
Length of Visible Light 9h 22m
Length of Day
7h 50m
Waxing Crescent, 6% of the Moon is Illuminated
Nov 15
Waxing Crescent
Nov 20
First Quarter
Nov 28
Full
Dec 6
Last Quarter
Dec 12
New

Hourly Weather History & Observations

Time (AKST) Temp. Windchill Dew Point Humidity Pressure Visibility Wind Dir Wind Speed Gust Speed Precip Events Conditions
12:16 AM 32.0 °F 25.6 °F 30.2 °F 93% 29.43 in 7.0 mi North 6.9 mph - N/A   Overcast
12:36 AM 32.0 °F 24.2 °F 30.2 °F 93% 29.43 in 1.0 mi North 9.2 mph - N/A   Overcast
12:56 AM 32.0 °F 24.8 °F 30.2 °F 93% 29.44 in 2.5 mi North 8.1 mph - N/A   Overcast
1:16 AM 32.0 °F 24.8 °F 30.2 °F 93% 29.45 in 1.5 mi North 8.1 mph - N/A   Overcast
1:36 AM 32.0 °F 23.6 °F 30.2 °F 93% 29.46 in 1.2 mi North 10.4 mph - N/A   Overcast
1:56 AM 30.2 °F 21.3 °F 30.2 °F 100% 29.46 in 3.0 mi North 10.4 mph - N/A   Overcast
2:16 AM 30.2 °F 21.9 °F 28.4 °F 93% 29.47 in 2.5 mi North 9.2 mph - N/A   Overcast
2:36 AM 28.4 °F 19.7 °F 28.4 °F 100% 29.48 in 8.0 mi North 9.2 mph - N/A   Overcast
2:56 AM 28.4 °F 19.1 °F 26.6 °F 93% 29.49 in 10.0 mi North 10.4 mph - N/A   Overcast
3:16 AM 28.4 °F 19.1 °F 26.6 °F 93% 29.50 in 10.0 mi North 10.4 mph - N/A   Overcast
3:36 AM 26.6 °F 17.5 °F 23.0 °F 86% 29.51 in 10.0 mi North 9.2 mph - N/A   Overcast
3:56 AM 24.8 °F 16.9 °F 23.0 °F 93% 29.51 in 10.0 mi North 6.9 mph - N/A   Partly Cloudy
4:16 AM 24.8 °F 16.1 °F 21.2 °F 86% 29.52 in 10.0 mi North 8.1 mph - N/A   Clear
4:36 AM 24.8 °F 16.1 °F 21.2 °F 86% 29.52 in 10.0 mi NNW 8.1 mph - N/A   Clear
4:56 AM 24.8 °F 17.9 °F 21.2 °F 86% 29.52 in 10.0 mi North 5.8 mph - N/A   Partly Cloudy
5:16 AM 24.8 °F 17.9 °F 21.2 °F 86% 29.52 in 10.0 mi North 5.8 mph - N/A   Scattered Clouds
5:36 AM 24.8 °F 17.9 °F 21.2 °F 86% 29.53 in 10.0 mi North 5.8 mph - N/A   Scattered Clouds
5:56 AM 24.8 °F 16.1 °F 21.2 °F 86% 29.53 in 10.0 mi North 8.1 mph - N/A   Overcast
6:16 AM 24.8 °F 16.1 °F 21.2 °F 86% 29.54 in 10.0 mi NNE 8.1 mph - N/A   Overcast
6:36 AM 24.8 °F 16.9 °F 21.2 °F 86% 29.54 in 10.0 mi NNE 6.9 mph - N/A   Overcast
6:56 AM 24.8 °F 14.6 °F 21.2 °F 86% 29.54 in 10.0 mi NE 10.4 mph - N/A   Mostly Cloudy
7:16 AM 24.8 °F 15.3 °F 19.4 °F 80% 29.55 in 10.0 mi NNE 9.2 mph - N/A   Overcast
7:36 AM 24.8 °F 15.3 °F 19.4 °F 80% 29.55 in 10.0 mi NNE 9.2 mph - N/A   Overcast
7:56 AM 21.2 °F 10.9 °F 17.6 °F 86% 29.55 in 4.0 mi NNE 9.2 mph - N/A   Overcast
8:16 AM 21.2 °F 10.1 °F 17.6 °F 86% 29.54 in 8.0 mi NNE 10.4 mph - N/A   Overcast
8:36 AM 21.2 °F 10.9 °F 17.6 °F 86% 29.54 in 6.0 mi NNE 9.2 mph - N/A   Overcast
8:56 AM 21.2 °F 10.9 °F 17.6 °F 86% 29.54 in 3.0 mi NNE 9.2 mph - N/A   Overcast
9:16 AM 19.4 °F 7.9 °F 17.6 °F 93% 29.55 in 2.5 mi NNE 10.4 mph - N/A   Overcast
9:36 AM 19.4 °F 5.5 °F 15.8 °F 86% 29.55 in 1.2 mi NNE 15.0 mph 19.6 mph N/A   Overcast
9:56 AM 19.4 °F 6.6 °F 15.8 °F 86% 29.54 in 1.0 mi NNE 12.7 mph 21.9 mph N/A   Overcast
10:16 AM 19.4 °F 5.5 °F 15.8 °F 86% 29.54 in 1.5 mi NNE 15.0 mph 20.7 mph N/A   Overcast
10:36 AM 19.4 °F 5.5 °F 15.8 °F 86% 29.56 in 1.8 mi NNE 15.0 mph 19.6 mph N/A   Overcast
10:56 AM 19.4 °F 5.0 °F 15.8 °F 86% 29.56 in 1.0 mi North 16.1 mph 20.7 mph N/A   Overcast
11:16 AM 17.6 °F 3.2 °F 14.0 °F 86% 29.56 in 2.0 mi North 15.0 mph 20.7 mph N/A   Overcast
11:36 AM 17.6 °F 2.7 °F 12.2 °F 79% 29.56 in 1.2 mi North 16.1 mph 26.5 mph N/A   Overcast
11:56 AM 15.8 °F -0.2 °F 12.2 °F 86% 29.57 in 1.2 mi North 17.3 mph 25.3 mph N/A   Overcast
12:16 PM 17.6 °F 1.7 °F 12.2 °F 79% 29.58 in 1.2 mi North 18.4 mph 26.5 mph N/A   Overcast
12:36 PM 15.8 °F -0.6 °F 10.4 °F 79% 29.58 in 1.2 mi North 18.4 mph 27.6 mph N/A   Overcast
12:56 PM 15.8 °F -1.1 °F 10.4 °F 79% 29.59 in 1.8 mi North 19.6 mph 27.6 mph N/A   Overcast
1:16 PM 15.8 °F -0.6 °F 10.4 °F 79% 29.59 in 2.0 mi North 18.4 mph 27.6 mph N/A   Overcast
1:36 PM 15.8 °F -1.5 °F 10.4 °F 79% 29.60 in 3.0 mi North 20.7 mph 28.8 mph N/A   Mostly Cloudy
1:56 PM 15.8 °F -1.5 °F 10.4 °F 79% 29.60 in 2.5 mi North 20.7 mph 27.6 mph N/A   Overcast
2:16 PM 15.8 °F -0.2 °F 10.4 °F 79% 29.61 in 6.0 mi North 17.3 mph 26.5 mph N/A   Overcast
2:36 PM 15.8 °F -2.3 °F 10.4 °F 79% 29.62 in 3.0 mi North 23.0 mph 29.9 mph N/A   Overcast
2:56 PM 15.8 °F -1.1 °F 10.4 °F 79% 29.62 in 2.5 mi North 19.6 mph 28.8 mph N/A   Overcast
3:16 PM 15.8 °F -0.6 °F 8.6 °F 73% 29.63 in 3.0 mi North 18.4 mph 31.1 mph N/A   Overcast
3:36 PM 15.8 °F -0.6 °F 8.6 °F 73% 29.64 in 5.0 mi North 18.4 mph 28.8 mph N/A   Overcast
3:56 PM 15.8 °F -1.1 °F 8.6 °F 73% 29.65 in 10.0 mi North 19.6 mph 27.6 mph N/A   Overcast
4:16 PM 15.8 °F -1.5 °F 8.6 °F 73% 29.66 in 10.0 mi North 20.7 mph 29.9 mph N/A   Overcast
4:36 PM 15.8 °F -0.6 °F 8.6 °F 73% 29.67 in 10.0 mi North 18.4 mph 26.5 mph N/A   Overcast
4:56 PM 15.8 °F -1.9 °F 8.6 °F 73% 29.68 in 10.0 mi North 21.9 mph 28.8 mph N/A   Overcast
5:16 PM 15.8 °F -0.6 °F 8.6 °F 73% 29.69 in 10.0 mi North 18.4 mph 25.3 mph N/A   Overcast
5:36 PM 15.8 °F -1.5 °F 6.8 °F 68% 29.70 in 10.0 mi North 20.7 mph 26.5 mph N/A   Mostly Cloudy
5:56 PM 14.0 °F -2.0 °F 6.8 °F 73% 29.71 in 10.0 mi North 16.1 mph 26.5 mph N/A   Mostly Cloudy
6:16 PM 14.0 °F -3.4 °F 6.8 °F 73% 29.73 in 10.0 mi North 19.6 mph 28.8 mph N/A   Overcast
6:36 PM 14.0 °F -1.4 °F 6.8 °F 73% 29.73 in 10.0 mi North 15.0 mph 26.5 mph N/A   Overcast
6:56 PM 15.8 °F -1.1 °F 6.8 °F 68% 29.75 in 10.0 mi North 19.6 mph 26.5 mph N/A   Overcast
7:16 PM 14.0 °F -3.0 °F 6.8 °F 73% 29.76 in 10.0 mi North 18.4 mph 27.6 mph N/A   Overcast
7:36 PM 15.8 °F -1.5 °F 6.8 °F 68% 29.77 in 10.0 mi North 20.7 mph 29.9 mph N/A   Overcast
7:56 PM 14.0 °F -3.9 °F 6.8 °F 73% 29.78 in 10.0 mi North 20.7 mph 28.8 mph N/A   Overcast
8:16 PM 14.0 °F -4.3 °F 6.8 °F 73% 29.79 in 10.0 mi North 21.9 mph 28.8 mph N/A   Mostly Cloudy
8:36 PM 14.0 °F -3.4 °F 6.8 °F 73% 29.79 in 10.0 mi North 19.6 mph 27.6 mph N/A   Partly Cloudy
8:56 PM 14.0 °F -3.0 °F 6.8 °F 73% 29.80 in 10.0 mi North 18.4 mph 24.2 mph N/A   Clear
9:16 PM 14.0 °F -3.9 °F 6.8 °F 73% 29.81 in 10.0 mi North 20.7 mph 27.6 mph N/A   Clear
9:36 PM 14.0 °F -3.0 °F 5.0 °F 67% 29.82 in 10.0 mi North 18.4 mph 26.5 mph N/A   Clear
9:56 PM 14.0 °F -2.0 °F 5.0 °F 67% 29.83 in 10.0 mi North 16.1 mph 25.3 mph N/A   Clear
10:16 PM 14.0 °F -1.4 °F 6.8 °F 73% 29.84 in 10.0 mi North 15.0 mph 25.3 mph N/A   Clear
10:36 PM 14.0 °F -2.0 °F 5.0 °F 67% 29.85 in 10.0 mi North 16.1 mph 21.9 mph N/A   Clear
10:56 PM 14.0 °F -1.4 °F 5.0 °F 67% 29.85 in 10.0 mi North 15.0 mph 24.2 mph N/A   Clear
11:16 PM 14.0 °F -0.8 °F 5.0 °F 67% 29.87 in 10.0 mi North 13.8 mph 23.0 mph N/A   Clear
11:36 PM 14.0 °F -1.4 °F 6.8 °F 73% 29.87 in 10.0 mi North 15.0 mph 21.9 mph N/A   Clear
11:56 PM 14.0 °F -1.4 °F 6.8 °F 73% 29.88 in 10.0 mi North 15.0 mph 20.7 mph N/A   Clear